Regional Weather Roundup
Issued by NWS Sterling, VA

Home | Current Version | Previous Version | Text Only | Print | Product List | Glossary On
Versions: 1 2 3 4 5 6 7 8 9 10 11 12 13 14 15 16 17 18 19 20 21 22 23 24 25 26 27 28 29 30 31 32 33 34 35 36 37 38 39 40
000
ASUS41 KLWX 280410
RWRLWX

REGIONAL WEATHER ROUNDUP
NATIONAL WEATHER SERVICE BALTIMORE MD/WASHINGTON DC
1100 PM EST SAT DEC 27 2014

Note: "FAIR" indicates few or no clouds below 12,000 feet
with no significant weather and/or obstructions to visibility.
 TC=TEMPERATURE CELSIUS

 * =Non NWS site. Station does not report precipitation (e.g. rain,
    snow, etc.), thunder, or fog.

DCZ001-MDZ009-015-VAZ040>042-051-053>054-280500-
WASHINGTON METRO

CITY           SKY/WX    TMP DP  RH WIND       PRES   REMARKS
WASHINGTON NAT CLOUDY    47  35  63 SW6       30.13F
DULLES         MOCLDY    38  32  79 S5        30.10F
ANDREWS AFB    PTCLDY    45  36  71 S8        30.11F
FT BELVOIR     MOCLDY    38  34  86 CALM      30.13F
QUANTICO       MOCLDY    45  37  73 CALM      30.13F
COLLEGE PARK*  PTCLDY    37  36  93 CALM      30.12S
LEESBURG*      CLEAR     46  32  57 S5        30.10F
MANASSAS*      PTCLDY    34  34 100 CALM      30.11F
GAITHERSBURG*  PTCLDY    46  34  61 S5        30.14F

$$

MDZ006>007-011-014-280500-
BALTIMORE METRO

CITY           SKY/WX    TMP DP  RH WIND       PRES   REMARKS
BWI AIRPORT    MOCLDY    37  32  82 CALM      30.11F
MD SCIENCE CTR   N/A     44  35  70 MISG      30.12F
MARTIN STATE   CLEAR     36  34  93 CALM      30.14S
ANNAPOLIS      PTCLDY    42  40  92 SE5       30.12F
FORT MEADE*    PTCLDY    34  32  93 CALM      30.14S

$$

MDZ012-015-019>023-280500-
MARYLAND EASTERN SHORE

CITY           SKY/WX    TMP DP  RH WIND       PRES   REMARKS
OCEAN CITY     MOCLDY    48  41  76 SW10      30.16F
SALISBURY      MOCLDY    46  39  76 S5        30.15F
BAY BRIDGE AP*   N/A     43  39  87 S7        30.12F
CAMBRIDGE*     PTCLDY    43  39  87 SE7       30.13F
EASTON*        PTCLDY    47  42  80 SW6       30.16F

$$

MDZ017>025-280500-
SOUTHERN MARYLAND

CITY           SKY/WX    TMP DP  RH WIND       PRES   REMARKS
PATUXENT RIVER CLOUDY    50  37  61 S8        30.12F
ST INIGOES     CLOUDY    48  37  65 S7        30.13F
LEONARDTOWN*   CLOUDY    50  36  57 S3        30.13F

$$

MDZ003>005-280500-
NORTH CENTRAL MARYLAND

CITY           SKY/WX    TMP DP  RH WIND       PRES   REMARKS
FREDERICK*     PTCLDY    37  30  75 S3        30.12F
HAGERSTOWN APT PTCLDY    47  27  45 CALM      30.06F
WESTMINSTER*   PTCLDY    46  34  61 S5        30.09S

$$

MDZ501>502-280500-
WESTERN MARYLAND

CITY           SKY/WX    TMP DP  RH WIND       PRES   REMARKS
OAKLAND*       CLOUDY    50  -4  10 SW9       30.03F
CUMBERLAND*    PTCLDY    41  32  70 CALM      30.07F

$$

VAZ025>031-280500-
SHENANDOAH VALLEY

CITY           SKY/WX    TMP DP  RH WIND       PRES   REMARKS
WINCHESTER*    PTCLDY    45  28  53 CALM      30.06F
FRONT ROYAL*   FAIR      45  30  57 S3        30.05F
LURAY*         FAIR      46  32  57 S6        30.07F
NEW MARKET*    FAIR      40  30  68 SW5       30.07F
STAUNTON*      MOCLDY    44  28  53 W3        30.11F
WAYNESBORO*    FAIR      46  24  43 CALM      30.10F

$$

WVZ021-048>050-054>055-280500-
EASTERN WEST VIRGINIA PANHANDLE

CITY           SKY/WX    TMP DP  RH WIND       PRES   REMARKS
MARTINSBURG    PTCLDY    39  29  67 CALM      30.07F
PETERSBURG*    MOCLDY    39  33  80 CALM      30.06F

$$

VAZ036>039-050-280500-
CENTRAL FOOTHILLS

CITY           SKY/WX    TMP DP  RH WIND       PRES   REMARKS
CHARLOTTESVILL MOCLDY    52  34  50 S8        30.10F
CULPEPER*      PTCLDY    37  34  87 CALM      30.10F
ORANGE*        MOCLDY    45  37  76 S3        30.11F
GORDONSVILLE*  FAIR      41  35  81 CALM      30.10F
WARRENTON*     FAIR      35  35 100 CALM      30.10F

$$

VAZ055>057-280500-
NORTH AND CENTRAL PIEDMONT

CITY           SKY/WX    TMP DP  RH WIND       PRES   REMARKS
FREDERICKSBRG* MOCLDY    43  39  85 CALM      30.11F
STAFFORD*      MOCLDY    43  34  71 CALM      30.15F

$$

NCZ024-NYZ072-PAZ021-071-VAZ022-071-280500-
OTHER REGIONAL OBSERVATIONS

CITY           SKY/WX    TMP DP  RH WIND       PRES   REMARKS
NEW YORK CITY  MOCLDY    50  32  50 VRB6      30.13F
PHILADELPHIA   MOCLDY    42  35  76 S5        30.13F
PITTSBURGH     LGT RAIN  50  36  58 SW8       29.99F
ROANOKE        MOCLDY    53  35  50 E6        30.14F
RICHMOND       CLOUDY    52  38  58 S6        30.14F
RALEIGH        MOCLDY    51  38  60 S5        30.20F

$$

ANZ530>537-280500-
MARINE OBSERVATIONS

STATION/POSITION TIME  TEMP    WIND        PRES
                       AIR SEA DIR/SP/G
                 (UTC) (F)     (DEG/KT/KT) (MB)
THOMAS PT LIGHT  0400   45 43  180/ 11/ 12 1021.0F
BALT KEY BRIDGE  0400   42     160/  3/  3 1019.8R
COVE POINT       0400   52     220/ 15/ 18 1019.9F
LEWISETTA        0400   51 44  220/ 10/ 12 1020.1F
SOLOMONS ISLAND  0400      44                N/A
PINEY POINT      0400          150/  3/  3   N/A

$$



USA.gov is the U.S. government's official web portal to all federal, state and local government web resources and services.